[[{"header":{"parameterUnit":"m.s-1","parameterCategory":1,"la1":30.2991,"la2":30.254,"lo1":-89.0895,"lo2":-89.0444,"dy":0.0017,"dx":0.0017,"nx":28,"ny":28,"refTime":"2026-01-03T09:00:00:Z","depth":0,"parameterNumber":2,"parameterNumberName":"U-component_of_WINDS"},"data":[0,0,0,0,0,0,0,0,0,0,0,0,0,0,0,0,0,0,0,0,0,0,0,0,0,0,0,0,0,0,0,0,0,0,0,0,0,0,0,0,0,0,0,0,0,0,0,0,0,0,0,0,0,0,0,0,0,0,1.6742,1.6744,0,1.6849,1.6851,1.6852,1.6837,1.6835,1.6833,1.6831,1.6949,1.6953,1.6958,0,0,0,0,0,0,0,0,0,0,0,0,0,1.6533,1.6537,1.6742,1.6744,1.6745,1.6849,1.6851,1.6852,1.6837,1.6835,1.6833,1.6831,1.6947,1.6953,1.6958,0,0,0,0,0,0,0,0,0,0,0,0,0,1.663,1.6538,1.6742,1.675,1.6752,1.6849,1.6851,1.6853,1.6838,1.6835,1.6832,1.683,1.6945,1.6952,1.6959,1.7058,0,0,1.6981,1.6984,0,0,0,0,0,0,0,0,1.6625,1.6638,1.6747,1.675,1.6752,1.6827,1.682,1.6922,1.6838,1.6805,1.6831,1.6828,1.6911,1.6921,1.6947,1.7063,1.7068,1.6982,1.6986,1.6989,1.6991,0,0,0,0,0,0,0,1.6618,1.6634,1.6785,1.6749,1.6752,1.6751,1.6761,1.6839,1.6872,1.6808,1.6807,1.6819,1.6911,1.694,1.695,1.707,1.6982,1.6988,1.6992,1.6995,1.7275,1.7278,0,0,0,0,0,0,1.6608,1.6628,1.6781,1.6788,1.668,1.6757,1.6769,1.6806,1.6871,1.6878,1.6822,1.6818,1.6929,1.6941,1.6954,1.7075,1.6989,1.6996,1.7,1.7272,1.7276,1.7279,0,0,0,0,0,0,1.6604,1.6622,1.6777,1.6708,1.6727,1.6763,1.6805,1.6809,1.6837,1.6881,1.6888,1.6844,1.6927,1.6943,1.7032,1.7079,1.6999,1.7006,1.7269,1.7273,1.7278,1.7317,0,0,0,0,0,0,1.6598,1.6621,1.6656,1.6709,1.6731,1.6851,1.6807,1.6813,1.6849,1.6846,1.6904,1.6912,1.6926,1.7021,1.7039,1.7087,1.7011,1.7265,1.7271,1.7276,1.7312,1.7322,1.7332,0,0,0,0,0,1.659,1.6664,1.6658,1.6677,1.6776,1.6854,1.6867,1.6881,1.6853,1.6891,1.6919,1.691,1.707,1.703,1.705,1.7101,1.7262,1.7269,1.7276,1.7307,1.732,1.7331,0,0,0,0,0,0,1.6619,1.6671,1.6665,1.6758,1.6801,1.6851,1.6899,1.6894,1.6948,1.6943,1.696,1.6973,1.7063,1.7091,1.7046,1.7201,1.7163,1.7174,1.718,1.7192,1.7202,1.7194,1.7017,0,0,0,0,0,1.6635,1.6692,1.6736,1.6813,1.6835,1.6863,1.6898,1.6904,1.6951,1.697,1.7005,1.7053,1.7115,1.7155,1.7214,1.7315,1.7329,1.736,1.737,1.7378,1.7388,1.7446,1.7461,1.7302,1.7302,1.7302,0,0,1.6671,1.6707,1.6742,1.682,1.6854,1.6915,1.6879,1.6944,1.699,1.6981,1.7066,1.7094,1.7149,1.7245,1.7289,1.7271,1.7435,1.7387,1.7393,1.7399,1.7455,1.747,1.7483,1.7307,1.7306,1.7306,0,0,1.6767,1.6799,1.6868,1.6903,1.6955,1.6973,1.699,1.7041,1.7059,1.7144,1.7139,1.7195,1.73,1.734,1.7374,1.7486,1.7481,1.7505,1.7558,1.7614,1.7626,1.7638,1.768,1.7694,1.7515,1.7515,1.7515,0,1.6806,1.6894,1.6904,1.697,1.7006,1.6998,1.707,1.7104,1.7174,1.72,1.7178,1.731,1.7347,1.7453,1.748,1.7507,1.7529,1.7499,1.7623,1.7635,1.7645,1.7686,1.7701,1.7518,1.7517,1.7517,1.7517,0,1.694,1.7002,1.7052,1.7117,1.7158,1.7227,1.725,1.7291,1.7294,1.7316,1.7405,1.7448,1.7516,1.7542,1.7546,1.7649,1.7637,1.7619,1.7581,1.7663,1.7701,1.7717,1.7522,1.7521,1.752,1.7519,0,0,1.7057,1.7127,1.7145,1.7176,1.7233,1.7283,1.7352,1.7416,1.7452,1.7501,1.7562,1.7651,1.7635,1.7674,1.7683,1.7732,1.7821,1.7709,1.7711,1.773,1.794,1.7953,1.7971,1.7817,1.782,1.7822,1.7936,0,1.716,1.7279,1.7291,1.74,1.7459,1.7453,1.7514,1.7557,1.758,1.7635,1.7661,1.7724,1.7698,1.7721,1.7769,1.78,1.7864,1.7792,1.7876,1.7879,1.7864,1.7991,1.8005,1.811,1.7951,1.7953,1.7955,0,1.7295,1.7346,1.746,1.751,1.7536,1.759,1.7651,1.7703,1.7753,1.7766,1.781,1.7813,1.7887,1.7845,1.795,1.7901,1.7936,1.7957,1.7961,1.7971,1.7923,1.8005,1.8143,1.816,1.7978,1.7976,1.7975,0,1.7371,1.7468,1.7549,1.7575,1.7636,1.7674,1.7702,1.7749,1.7788,1.7842,1.7868,1.7931,1.7966,1.8016,1.8038,1.8004,1.8142,1.8101,1.8157,1.8157,1.8187,1.8185,1.8335,1.8208,1.8208,1.8207,1.8207,0,1.7485,1.7555,1.7584,1.7634,1.7714,1.7728,1.7807,1.7834,1.7876,1.7933,1.7933,1.7987,1.8011,1.807,1.8087,1.8172,1.8188,1.8203,1.8207,1.8203,1.8202,1.8228,1.8222,1.8212,1.8211,1.821,1.8209,0,1.7583,1.7605,1.7693,1.7743,1.7757,1.7814,1.7858,1.7908,1.793,1.8003,1.8021,1.8056,1.8126,1.8151,1.8236,1.8248,1.8347,1.8345,1.833,1.8331,1.8387,1.8382,1.8559,1.8584,1.8439,1.8441,1.8442,0,1.7655,1.7708,1.7764,1.7801,1.783,1.789,1.7929,1.7946,1.7987,1.8049,1.8093,1.8161,1.8217,1.8328,1.8364,1.8429,1.8429,1.8487,1.8439,1.8435,1.8432,1.8429,1.8436,1.8496,1.8498,1.8499,1.85,0,1.778,1.7789,1.7843,1.7903,1.7949,1.7998,1.8045,1.8076,1.8101,1.8148,1.8217,1.8261,1.8347,1.8416,1.8484,1.8515,1.8513,1.8514,1.8531,1.8529,1.8519,1.8527,1.8355,1.8511,1.8509,1.8509,1.8508,1.8508,1.7868,1.7917,1.7963,1.8026,1.8062,1.8107,1.8156,1.8184,1.8242,1.8312,1.8319,1.8395,1.8447,1.8537,1.8571,1.8633,1.8618,1.8641,1.8648,1.8654,1.8659,1.8508,1.8645,1.8645,1.8645,1.8644,1.8644,0,1.7995,1.8025,1.8082,1.8147,1.8197,1.8188,1.824,1.8283,1.8349,1.8396,1.845,1.8532,1.8599,1.864,1.8708,1.875,1.8751,1.8767,1.8765,1.8773,1.8667,1.8647,1.8765,1.8765,1.8765,1.8765,1.8765,1.8765,1.8067,1.8148,1.8163,1.8264,1.8294,1.8366,1.8397,1.8439,1.8477,1.8567,1.8622,1.8647,1.8693,1.8765,1.8827,1.8838,1.8864,1.8882,1.8891,1.8792,1.878,1.8768,1.8749,1.8887,1.8887,1.8992,1.8993,1.8993]},{"header":{"parameterUnit":"m.s-1","parameterCategory":1,"la1":30.2991,"la2":30.254,"lo1":-89.0895,"lo2":-89.0444,"dy":0.0017,"dx":0.0017,"nx":28,"ny":28,"refTime":"2026-01-03T09:00:00:Z","depth":0,"parameterNumber":3,"parameterNumberName":"V-component_of_WINDS"},"data":[0,0,0,0,0,0,0,0,0,0,0,0,0,0,0,0,0,0,0,0,0,0,0,0,0,0,0,0,0,0,0,0,0,0,0,0,0,0,0,0,0,0,0,0,0,0,0,0,0,0,0,0,0,0,0,0,0,0,2.7088,2.709,0,2.7227,2.7229,2.723,2.7232,2.7231,2.7229,2.7227,2.7373,2.7379,2.7384,0,0,0,0,0,0,0,0,0,0,0,0,0,2.6829,2.6834,2.7088,2.709,2.7091,2.7227,2.7229,2.7231,2.7233,2.723,2.7228,2.7226,2.7371,2.7378,2.7385,0,0,0,0,0,0,0,0,0,0,0,0,0,2.6952,2.6835,2.7088,2.7109,2.7112,2.7227,2.7229,2.7231,2.7233,2.723,2.7228,2.7225,2.7369,2.7377,2.7386,2.749,0,0,2.7411,2.7414,0,0,0,0,0,0,0,0,2.6945,2.6962,2.7104,2.7107,2.7111,2.721,2.7191,2.7318,2.7234,2.7187,2.7227,2.7224,2.7321,2.7333,2.7365,2.7497,2.7503,2.7412,2.7417,2.742,2.7423,0,0,0,0,0,0,0,2.6937,2.6956,2.7143,2.7106,2.711,2.7113,2.7127,2.7215,2.7267,2.7191,2.7191,2.7208,2.7323,2.7357,2.7369,2.7505,2.7411,2.7419,2.7424,2.7427,2.7732,2.7735,0,0,0,0,0,0,2.6923,2.6948,2.7139,2.7147,2.702,2.712,2.7136,2.7181,2.7266,2.7277,2.721,2.7207,2.7344,2.7359,2.7374,2.7504,2.742,2.7428,2.7433,2.7729,2.7733,2.7736,0,0,0,0,0,0,2.6918,2.694,2.7133,2.7048,2.7073,2.7127,2.7177,2.7185,2.7219,2.7281,2.729,2.7235,2.7343,2.7362,2.7461,2.7509,2.7432,2.7439,2.7725,2.773,2.7735,2.7763,0,0,0,0,0,0,2.691,2.6938,2.6977,2.7049,2.7077,2.7217,2.718,2.719,2.7233,2.7231,2.7307,2.7317,2.7342,2.7449,2.747,2.7519,2.7446,2.7721,2.7728,2.7733,2.7758,2.7768,2.7777,0,0,0,0,0,2.6901,2.6979,2.6979,2.7002,2.7127,2.7219,2.7236,2.7262,2.7237,2.7278,2.7317,2.7315,2.75,2.7459,2.7482,2.7535,2.7719,2.7726,2.7733,2.7754,2.7766,2.7776,0,0,0,0,0,0,2.6912,2.6989,2.6989,2.7093,2.715,2.722,2.7271,2.7274,2.734,2.7335,2.7366,2.7383,2.7483,2.7518,2.7472,2.7642,2.7607,2.7619,2.7615,2.7627,2.7636,2.7626,2.7453,0,0,0,0,0,2.6927,2.6994,2.7058,2.7144,2.7172,2.7217,2.7258,2.7274,2.7334,2.7358,2.7405,2.7465,2.7537,2.7584,2.7653,2.7763,2.7781,2.7811,2.782,2.7827,2.7838,2.7902,2.7916,2.7759,2.7759,2.7759,0,0,2.6958,2.7008,2.7049,2.7148,2.7193,2.7264,2.7237,2.7313,2.7367,2.737,2.7467,2.7504,2.7573,2.7678,2.7727,2.7711,2.7885,2.7836,2.7842,2.7848,2.791,2.7925,2.7938,2.7764,2.7763,2.7762,0,0,2.7051,2.7094,2.7172,2.7218,2.7287,2.7317,2.7336,2.7406,2.743,2.7527,2.7532,2.7598,2.772,2.777,2.7811,2.7925,2.7926,2.7947,2.7996,2.8058,2.807,2.8081,2.8124,2.8139,2.7957,2.7957,2.7957,0,2.7081,2.7186,2.7211,2.7288,2.7333,2.7338,2.7419,2.7463,2.7552,2.7583,2.7563,2.7719,2.7766,2.7885,2.7912,2.7945,2.7969,2.7939,2.8066,2.8077,2.8088,2.813,2.8146,2.7959,2.7959,2.7959,2.7958,0,2.7221,2.7295,2.7349,2.7434,2.7485,2.7563,2.7602,2.765,2.7662,2.7694,2.7795,2.7851,2.7933,2.7962,2.7974,2.8084,2.8072,2.8059,2.8024,2.8105,2.8145,2.8161,2.7962,2.7962,2.7961,2.796,0,0,2.7325,2.7424,2.7444,2.7484,2.7561,2.762,2.7699,2.7779,2.7821,2.7882,2.7951,2.8056,2.8045,2.8092,2.8109,2.8163,2.8253,2.8144,2.8146,2.8164,2.8381,2.8392,2.8409,2.8254,2.8257,2.826,2.8376,0,2.7427,2.7567,2.7593,2.7716,2.7786,2.7793,2.7863,2.7919,2.7952,2.8018,2.8054,2.8129,2.8107,2.8136,2.8189,2.8231,2.8298,2.8223,2.8321,2.8324,2.8305,2.843,2.8441,2.8548,2.8391,2.8394,2.8396,0,2.7566,2.7631,2.776,2.7831,2.7861,2.7923,2.8,2.8061,2.8127,2.8147,2.82,2.8212,2.8298,2.8258,2.8377,2.8326,2.8368,2.8394,2.8399,2.8411,2.8366,2.8447,2.8582,2.8599,2.842,2.8418,2.8416,0,2.7631,2.7751,2.7845,2.7878,2.7963,2.8006,2.8044,2.8106,2.8153,2.822,2.8252,2.8328,2.8371,2.8431,2.8464,2.8432,2.8582,2.8545,2.8603,2.8603,2.8636,2.8633,2.8782,2.8659,2.8659,2.8659,2.8658,0,2.7744,2.7824,2.7876,2.7933,2.8024,2.8054,2.8143,2.818,2.8236,2.8302,2.8313,2.8376,2.8416,2.8485,2.8512,2.8608,2.8627,2.8647,2.8654,2.8647,2.8645,2.8676,2.8671,2.8663,2.8662,2.8661,2.866,0,2.7833,2.787,2.7973,2.8045,2.8065,2.8128,2.8191,2.8248,2.8281,2.8366,2.8388,2.844,2.8523,2.8562,2.8663,2.8682,2.8792,2.8792,2.8769,2.8772,2.883,2.8825,2.9005,2.9031,2.8889,2.8891,2.8892,0,2.7903,2.7964,2.8043,2.8088,2.8127,2.8199,2.8247,2.828,2.833,2.841,2.8459,2.8542,2.8609,2.8741,2.8789,2.8868,2.8872,2.893,2.8884,2.8876,2.8876,2.8872,2.888,2.8938,2.894,2.8941,2.8942,0,2.8025,2.8041,2.8109,2.8185,2.8242,2.8304,2.8365,2.8401,2.8444,2.85,2.8584,2.8637,2.8742,2.8824,2.8907,2.8947,2.8953,2.8956,2.8974,2.8969,2.8954,2.8965,2.8794,2.8952,2.8951,2.895,2.895,2.8949,2.8108,2.8164,2.8228,2.8305,2.8354,2.8411,2.847,2.851,2.8581,2.8668,2.8683,2.8773,2.884,2.8951,2.8994,2.9067,2.9054,2.9079,2.9086,2.9093,2.9097,2.8941,2.9082,2.9081,2.9081,2.9081,2.9081,0,2.8232,2.8274,2.8344,2.8429,2.849,2.8489,2.8557,2.8609,2.8687,2.8748,2.8815,2.8913,2.8994,2.9049,2.9132,2.918,2.9185,2.92,2.9198,2.9208,2.9103,2.908,2.9195,2.9195,2.9195,2.9195,2.9195,2.9195,2.8304,2.8399,2.8423,2.8545,2.8587,2.8674,2.8714,2.8767,2.8816,2.8925,2.8992,2.9027,2.9087,2.9175,2.925,2.9264,2.9295,2.9312,2.9326,2.9227,2.9215,2.9204,2.9182,2.9318,2.9318,2.9426,2.9427,2.9428]}]]